Weather History for Rolla, MO

Change the Weather History Date:

Saturday, June 22, 2013

  Actual Average Record
Temperature  
Mean Temperature 79 °F 74 °F  
Max Temperature 88 °F 84 °F 98 °F (1960)
Min Temperature 70 °F 64 °F 43 °F (1902)
Degree Days  
Heating Degree Days 0 0  
Month to date heating degree days 17 12  
Since 1 June heating degree days 17 12  
Since 1 July heating degree days 4957 4846  
Cooling Degree Days 14 9  
Month to date cooling degree days 122 152  
Year to date cooling degree days 229 259  
Since 1 June cooling degree days 122 152  
Growing Degree Days 29 (Base 50)    
Moisture  
Dew Point 69 °F    
Average Humidity 77    
Maximum Humidity 93    
Minimum Humidity 61    
Precipitation  
Precipitation 0.00 in 0.15 in 1.35 in (1951)
Month to date precipitation 2.33 3.52  
Year to date precipitation 23.63 20.33  
Sea Level Pressure  
Sea Level Pressure 30.02 in    
Wind  
Wind Speed 9 mph (SSE)    
Max Wind Speed 16 mph    
Max Gust Speed 22 mph    
Visibility 10 miles    
Events      
T = Trace of Precipitation, MM = Missing Value Source: NWS Daily Summary

Daily Weather History Graph

Daily Weather History Graph

Search for Another Location

Airport:

Trip Planner

Search our weather history database for the weather conditions in past years. The results will help you decide how hot, cold, wet, or windy it might be!

Date:

Astronomy

Jun. 22, 2013 Rise Set
Actual Time 5:44 AM CDT 8:33 PM CDT
Civil Twilight 5:13 AM CDT 9:05 PM CDT
Nautical Twilight 4:33 AM CDT 9:44 PM CDT
Astronomical Twilight 3:48 AM CDT 10:30 PM CDT
Moon 7:49 PM CDT (6/22) 4:56 AM CDT (6/22)
Length of Visible Light 15h 52m
Length of Day
14h 49m
Waxing Gibbous, 99% of the Moon is Illuminated
Jun 22
Waxing Gibbous
Jun 23
Full
Jun 29
Last Quarter
Jul 8
New
Jul 15
First Quarter

Hourly Weather History & Observations

Time (CDT) Temp. Heat Index Dew Point Humidity Pressure Visibility Wind Dir Wind Speed Gust Speed Precip Events Conditions
12:53 AM 75.9 °F - 70.0 °F 82% 30.01 in 10.0 mi South 6.9 mph - N/A   Clear
1:53 AM 73.9 °F - 69.1 °F 85% 30.01 in 10.0 mi ESE 4.6 mph - N/A   Clear
2:53 AM 72.0 °F - 69.1 °F 91% 30.01 in 9.0 mi SE 6.9 mph - N/A   Clear
3:53 AM 73.0 °F - 69.1 °F 87% 30.00 in 10.0 mi SSE 8.1 mph - N/A   Clear
4:53 AM 73.9 °F - 69.1 °F 85% 30.01 in 10.0 mi South 9.2 mph - N/A   Clear
5:53 AM 73.0 °F - 69.1 °F 87% 30.04 in 10.0 mi South 9.2 mph - N/A   Clear
6:53 AM 75.0 °F - 70.0 °F 84% 30.04 in 10.0 mi South 9.2 mph - N/A   Clear
7:53 AM 75.9 °F - 71.1 °F 85% 30.05 in 10.0 mi South 8.1 mph - N/A   Scattered Clouds
8:53 AM 81.0 °F 85.8 °F 73.0 °F 77% 30.06 in 10.0 mi South 10.4 mph - N/A   Clear
9:53 AM 81.0 °F 85.8 °F 73.0 °F 77% 30.05 in 10.0 mi SSW 10.4 mph - N/A   Clear
10:53 AM 82.0 °F 86.7 °F 72.0 °F 71% 30.06 in 10.0 mi SSW 8.1 mph - N/A   Clear
11:53 AM 82.9 °F 87.5 °F 71.1 °F 67% 30.06 in 10.0 mi SW 9.2 mph - N/A   Clear
12:53 PM 84.9 °F 91.4 °F 73.0 °F 67% 30.05 in 10.0 mi South 8.1 mph - N/A   Clear
1:53 PM 87.1 °F 95.4 °F 73.9 °F 65% 30.03 in 10.0 mi South 9.2 mph - N/A   Partly Cloudy
2:53 PM 84.0 °F 88.4 °F 70.0 °F 63% 30.01 in 10.0 mi SSW 8.1 mph - N/A   Partly Cloudy
3:53 PM 84.0 °F 89.6 °F 72.0 °F 67% 29.99 in 10.0 mi SE 9.2 mph - N/A   Clear
4:53 PM 82.9 °F 87.0 °F 70.0 °F 65% 29.98 in 10.0 mi SSE 10.4 mph - N/A   Clear
5:53 PM 78.1 °F - 69.1 °F 74% 29.98 in 10.0 mi SE 8.1 mph - N/A   Clear
6:53 PM 75.9 °F - 68.0 °F 76% 29.98 in 10.0 mi SSE 9.2 mph - N/A   Clear
7:53 PM 73.9 °F - 66.9 °F 79% 29.99 in 10.0 mi ESE 12.7 mph - N/A   Clear
8:53 PM 73.0 °F - 66.0 °F 79% 30.00 in 10.0 mi SE 12.7 mph - N/A   Clear
9:53 PM 72.0 °F - 64.9 °F 78% 30.03 in 10.0 mi SE 12.7 mph - N/A   Clear
10:53 PM 71.1 °F - 64.0 °F 78% 30.01 in 10.0 mi SE 11.5 mph - N/A   Clear
11:53 PM 71.1 °F - 63.0 °F 75% 29.99 in 10.0 mi SSE 9.2 mph - N/A   Clear